Probability
0 0 0 0 0 0 0 0 0 0 0 0 0 0 0 0 0 0 0 0 0 0 0 0 0 0 0 0 0 0 0 0 0 0 0 0 0 0 0 0 0 0 0 0
0 0 0 0 0 0 0 0 0 0 0 0 0 0 0 0 0 0 0 0 0 0 0 0 0 0 0 0 0 0 0 0 0 0 0 0 0 0 0 0 0 0 0 0
0 0 0 0 0 0 0 0 0 0 0 0 0 0 0 0 0 0 0 0 0 0 0 0 0 0 0 0 0 0 0 0 0 0 0 0 0 0 0 0 0 0 0 0
0 0 0 0 0 0 0 0 0 0 0 0 0 0 0 0 0 0 0 0 0 0 0 0 0 0 0 0 0 0 0 0 0 0 0 0 0 0 0 0 0 0 0 0
0 0 0 0 0 0 0 0 0 0 0 0 0 0 0 0 0 0 0 0 0 0 0 0 0 0 0 0 0 0 0 0 0 0 0 0 0 0 0 0 0 0 0 0
0 0 0 0 0 0 0 0 0 0 0 0 0 0 0 0 0 0 0 0 0 0 0 0 0 0 0 0 0 0 0 0 0 0 0 0 0 0 0 0 0 0 0 0
0 0 0 0 0 0 0 0 0 0 0 0 0 0 0 0 0 0 0 0 0 0 0 0 0 0 0 0 0 0 0 0 0 0 0 0 0 0 0 0 0 0 0 0
0 0 0 0 0 0 0 0 0 0 0 0 0 0 0 0 0 0 0 0 0 0 0 0 0 0 0 0 0 0 0 0 0 0 0 0 0 0 0 0 0 0 0 0
0 0 0 0 0 0 0 0 0 0 0 0 0 0 0 0 0 0 0 0 0 0 0 0 0 0 0 0 0 0 0 0 0 0 0 0 0 0 0 0 0 0 0 0
0 0 0 0 0 0 0 0 0 0 0 0 0 0 0 0 0 0 0 0 0 0 0 0 0 0 0 0 0 0 0 0 0 0 0 0 0 0 0 0 0 0 0 0
0 0 0 0 0 0 0 0 0 0 0 0 0 0 0 0 0 0 0 0 0 0 0 0 0 0 0 0 0 0 0 0 0 0 0 0 0 0 0 0 0 0 0 0
0 0 0 0 0 0 0 0 0 0 0 0 0 0 0 0 0 0 0 0 0 0 0 0 0 0 0 0 0 0 0 0 0 0 0 0 0 0 0 0 0 0 0 0
0 0 0 0 0 0 0 0 0 0 0 0 0 0 0 0 0 0 0 0 0 0 0 0 0 0 0 0 0 0 0 0 0 0 0 0 0 0 0 0 0 0 0 0
0 0 0 0 0 0 0 0 0 0 0 0 0 0 0 0 0 0 0 0 0 0 0 0 0 0 0 0 0 0 0 0 0 0 0 0 0 0 0 0 0 0 0 0
0 0 0 0 0 0 0 0 0 0 0 0 0 0 0 0 0 0 0 0 0 0 0 0 0 0 0 0 0 0 0 0 0 0 0 0 0 0 0 0 0 0 0 0
0 0 0 0 0 0 0 0 0 0 0 0 0 0 0 0 0 0 0 0 0 0 0 0 0 0 0 0 0 0 0 0 0 0 0 0 0 0 0 0 0 0 0 0
0 0 0 0 0 0 0 0 0 0 0 0 0 0 0 0 0 0 0 0 0 0 0 0 0 0 0 0 0 0 0 0 0 0 0 0 0 0 0 0 0 0 0 0
0 0 0 0 0 0 0 0 0 0 0 0 0 0 0 0 0 0 0 0 0 0 0 0 0 0 0 0 0 0 0 0 0 0 0 0 0 0 0 0 0 0 0 0
0 0 0 0 0 0 0 0 0 0 0 0 0 0 0 0 0 0 0 0 0 0 0 0 0 0 0 0 0 0 0 0 0 0 0 0 0 0 0 0 0 0 0 0
0 0 0 0 0 0 0 0 0 0 0 0 0 0 0 0 0 0 0 0 0 0 0 0 0 0 0 0 0 0 0 0 0 0 0 0 0 0 0 0 0 0 0 0
0 0 0 0 0 0 0 0 0 0 0 0 0 0 0 0 0 0 0 0 0 0 0 0 0 0 0 0 0 0 0 0 0 0 0 0 0 0 0 0 0 0 0 0
0 0 0 0 0 0 0 0 0 0 0 0 0 0 0 0 0 0 0 0 0 0 0 0 0 0 0 0 0 0 0 0 0 0 0 0 0 0 0 0 0 0 0 0
0 0 0 0 0 0 0 0 0 0 0 0 0 0 0 0 0 0 0 0 0 0 0 0 0 0 0 0 0 0 0 0 0 0 0 0 0 0 0 0 0 0 0 0
0 0 0 0 0 0 0 0 0 0 0 0 0 0 0 0 0 0 0 0 0 0 0 0 0 0 0 0 0 0 0 0 0 0 0 0 0 0 0 0 0 0 0 0
0 0 0 0 0 0 0 0 0 0 0 0 0 0 0 0 0 0 0 0 0 0 0 0 0 0 0 0 0 0 0 0 0 0 0 0 0 0 0 0 0 0 0 0
0 0 0 0 0 0 0 0 0 0 0 0 0 0 0 0 0 0 0 0 0 0 0 0 0 0 0 0 0 0 0 0 0 0 0 0 0 0 0 0 0 0 0 0
Wind_Speed
15 13 17 22 24 17 17 19 16 13 7 7 14 17 16 14 12 12 10 8 7 6 5 6 6 6 7 9 10 10 10 9 8 7 7 8 8 8 8 9 11 11 11 10
13 19 19 20 22 18 17 17 16 11 5 7 12 17 16 12 10 9 9 10 9 9 8 8 8 9 10 10 11 12 12 12 11 9 8 9 9 9 8 8 10 11 11 10
20 12 16 20 22 21 19 17 15 9 5 7 8 12 8 4 3 3 7 9 10 10 11 11 10 10 10 11 11 11 13 13 13 12 9 9 8 7 7 8 7 10 10 10
20 14 16 21 23 22 19 15 11 9 7 5 3 7 6 6 5 6 9 10 11 11 12 11 11 11 11 10 11 12 13 13 12 10 10 11 9 8 7 6 6 7 9 10
14 15 15 21 23 21 13 12 10 8 8 8 8 8 8 5 7 9 11 12 12 12 12 12 11 11 10 10 10 11 13 13 12 12 11 11 9 8 6 5 7 6 7 8
12 10 13 14 15 14 11 12 7 2 4 9 9 9 7 3 2 7 12 13 13 13 12 12 11 10 10 9 9 10 12 12 12 11 11 11 10 8 7 7 6 5 5 6
12 9 7 9 14 11 12 13 7 7 8 7 4 7 8 1 1 4 13 16 15 14 13 13 13 11 11 10 9 9 11 12 11 11 10 10 9 8 8 6 6 6 5 6
13 9 11 12 12 11 14 13 7 7 8 5 6 8 4 4 1 2 10 15 15 15 13 13 12 11 11 10 10 10 10 10 10 9 9 8 8 5 5 7 6 6 5 6
13 8 7 9 9 12 13 10 2 1 2 4 6 5 4 4 2 3 12 17 17 16 14 13 12 11 11 10 9 9 10 10 9 8 8 8 7 7 6 6 6 5 6 6
8 7 7 6 8 2 6 10 6 4 6 6 5 5 3 4 1 5 13 18 18 16 14 13 12 10 10 9 9 9 9 9 8 7 7 5 6 6 6 5 6 6 7 7
6 7 8 8 11 13 9 10 8 7 5 5 4 3 2 3 4 5 12 17 18 17 15 13 11 11 10 10 9 9 9 8 7 7 6 6 6 6 5 5 6 6 7 8
6 6 7 7 2 9 11 12 12 9 8 6 3 2 3 3 4 4 10 15 16 15 14 13 12 11 11 10 9 8 8 7 7 6 5 5 5 5 5 5 6 7 8 8
7 7 10 7 4 7 11 14 15 9 5 8 8 4 4 0 2 4 10 14 14 14 14 13 12 12 11 10 9 8 7 7 6 5 4 4 4 5 5 6 6 7 8 9
5 6 9 12 9 13 15 17 19 17 11 12 12 8 6 4 4 6 10 13 14 14 14 13 13 12 11 10 9 8 7 6 5 4 3 3 4 5 5 6 7 7 8 9
7 6 7 5 6 15 17 20 22 24 21 15 14 15 13 8 6 7 10 12 13 14 14 14 13 12 11 10 9 7 7 6 4 3 2 3 4 5 5 6 7 8 8 9
8 5 5 5 5 11 13 20 24 26 25 23 17 15 10 5 6 8 10 12 13 13 14 14 13 13 12 10 9 7 6 5 3 2 2 3 4 5 6 7 8 8 9 10
9 6 6 4 5 7 11 18 23 23 24 23 24 20 7 8 9 9 10 11 11 12 13 14 14 12 11 9 8 7 6 5 3 1 2 4 5 6 7 8 8 9 10 11
11 7 2 4 7 9 6 2 15 21 21 20 15 6 11 10 8 6 6 9 10 10 12 12 12 11 10 9 8 7 6 4 2 1 2 4 5 7 8 9 9 10 10 11
6 6 4 3 6 7 4 5 8 13 14 14 13 8 10 13 10 6 3 4 6 8 9 11 11 11 10 9 8 7 5 3 1 2 3 5 6 8 9 10 10 11 11 12
4 4 4 4 5 7 1 5 6 7 7 9 12 14 15 14 10 7 6 6 8 9 10 11 11 11 10 8 7 6 4 2 1 3 4 5 7 8 9 10 11 11 11 12
6 4 7 7 7 7 3 6 9 8 2 11 13 14 14 7 5 10 10 8 9 10 11 12 11 9 8 8 6 5 3 1 2 3 5 6 7 8 10 10 10 11 11 13
13 10 10 8 8 7 7 9 8 2 8 12 13 11 10 10 10 10 9 10 10 11 11 11 10 9 7 6 5 3 1 1 2 4 6 7 8 8 8 10 11 11 12 13
9 7 6 7 4 3 3 2 1 8 13 11 10 10 11 10 8 8 8 9 10 10 10 9 9 9 7 5 3 1 1 2 4 5 7 8 9 9 9 10 11 11 11 10
4 1 4 3 2 1 1 3 6 10 10 10 10 10 9 8 9 8 8 8 9 9 9 8 9 8 6 5 3 1 1 2 4 7 8 8 9 9 9 8 8 9 10 10
7 7 5 4 3 4 4 6 9 9 11 11 9 7 8 9 8 7 7 8 8 8 8 7 7 6 6 5 3 1 1 3 6 7 8 8 8 9 9 9 8 10 10 11
7 8 9 7 11 8 10 10 10 12 10 10 9 7 6 6 7 6 6 6 7 8 8 7 7 6 6 4 2 2 3 5 6 7 7 6 7 8 8 10 10 10 12 17
Wind_Direction
198 218 207 196 200 205 200 207 211 216 205 233 255 268 276 279 263 250 230 201 174 131 98 81 72 68 69 64 62 64 72 86 101 107 107 99 89 83 74 64 58 56 52 48
200 225 215 200 197 207 204 204 208 213 204 251 270 276 277 274 258 243 217 189 165 142 122 99 89 78 72 70 70 70 71 76 80 86 88 91 91 81 75 68 58 52 49 44
210 216 209 198 192 197 203 203 200 195 184 225 278 274 248 206 194 196 190 173 159 148 131 117 101 88 81 72 72 75 77 80 85 93 99 102 98 92 77 65 57 47 44 40
216 224 201 192 191 193 199 203 202 203 236 235 269 292 262 219 203 185 172 166 157 147 135 125 115 102 89 82 81 82 83 83 84 89 91 91 87 80 69 59 58 54 44 37
207 220 206 193 191 192 191 180 196 215 246 268 244 261 268 224 230 196 179 169 160 153 143 133 123 112 101 92 87 87 86 82 79 81 85 86 83 83 76 66 54 46 43 36
212 222 215 197 184 182 144 143 130 151 227 248 231 231 266 210 192 165 173 170 164 157 149 138 131 124 112 105 98 95 91 84 80 80 79 80 83 79 71 56 42 33 30 25
210 226 208 174 155 168 172 156 151 179 204 228 169 226 253 77 127 182 178 173 167 162 158 152 148 138 127 119 110 105 99 92 87 84 81 80 78 73 61 46 34 24 17 14
192 201 188 179 170 169 181 182 188 188 191 175 176 232 246 80 93 228 185 170 166 168 167 162 153 143 135 127 121 114 106 101 96 90 85 79 73 65 56 43 31 23 12 7
190 195 168 173 166 162 171 191 181 48 143 210 203 234 262 144 139 171 175 169 173 174 171 165 155 148 140 134 127 122 116 110 103 96 90 79 69 61 52 39 29 20 11 356
192 168 161 144 137 142 181 159 160 197 198 211 209 229 211 169 148 160 177 178 176 174 172 165 159 150 141 132 128 126 121 113 106 96 84 74 64 54 44 34 26 14 3 355
209 157 153 167 184 167 154 173 179 188 249 240 204 167 116 296 304 210 187 182 176 174 173 167 159 149 141 138 138 133 126 119 110 98 89 76 62 46 35 27 17 4 356 349
202 157 152 175 198 194 189 184 180 188 200 227 247 139 107 298 302 215 183 178 175 174 171 165 156 150 148 147 145 140 133 123 111 99 86 71 55 36 24 18 8 356 349 343
177 160 143 156 180 191 207 201 200 209 210 209 220 192 121 94 102 155 170 172 172 171 167 162 159 158 155 152 149 142 134 124 115 101 83 65 43 23 12 7 358 349 342 333
198 199 203 193 185 178 196 201 205 206 217 219 225 224 182 184 159 155 167 172 172 171 168 167 165 163 159 155 150 143 133 127 118 102 75 46 24 8 0 356 347 339 332 325
213 218 216 218 171 180 195 200 204 214 222 231 229 231 230 215 185 166 166 167 169 170 171 171 169 165 160 154 149 141 136 132 125 107 67 28 3 356 350 345 336 327 321 318
209 215 189 193 189 199 211 210 208 216 222 232 242 241 236 183 156 161 167 170 173 173 173 172 170 167 163 156 149 145 141 135 129 106 37 4 349 348 343 334 325 318 315 316
189 192 192 182 156 175 230 220 214 218 223 226 234 237 183 177 179 173 170 173 176 173 172 172 172 167 157 151 148 148 142 138 132 85 6 352 345 338 331 322 316 315 315 316
187 181 158 141 158 219 225 229 216 221 226 226 235 246 192 179 142 129 149 162 163 165 167 167 162 152 145 142 142 138 137 140 137 39 356 349 336 327 321 316 315 316 315 313
193 165 142 175 215 253 243 187 187 204 226 219 217 174 138 129 123 119 115 136 144 152 152 150 146 142 141 142 141 142 146 150 143 6 348 338 327 320 316 316 316 315 312 311
107 132 149 188 216 237 235 142 165 170 228 187 182 160 150 157 165 149 137 128 125 128 132 134 135 136 138 139 145 154 155 154 32 353 331 322 317 313 311 310 310 310 309 308
146 158 197 212 234 261 107 144 167 197 240 147 160 152 155 162 116 118 128 125 127 129 131 133 135 136 136 141 151 153 145 66 9 327 315 313 311 308 304 304 306 307 307 307
178 182 194 199 224 240 137 157 189 105 117 136 139 138 128 111 107 117 126 130 133 133 135 138 136 131 134 143 148 142 111 37 334 315 309 307 306 304 299 304 306 309 311 310
198 198 189 197 212 55 166 196 129 143 138 135 134 131 127 125 127 128 133 138 142 143 143 143 139 135 137 138 138 136 72 353 319 308 304 302 301 300 301 305 309 312 313 312
185 144 150 169 187 168 163 136 133 138 129 126 126 128 129 128 133 134 138 145 148 150 149 147 144 145 146 147 150 138 355 319 302 297 299 300 301 304 308 308 306 311 313 312
158 161 155 156 151 139 163 153 135 118 116 114 109 110 125 129 135 141 146 154 155 153 151 152 154 156 154 157 167 185 290 288 286 290 293 298 300 304 307 306 306 307 303 305
180 179 180 188 180 169 169 155 142 133 131 130 122 115 114 128 136 139 144 152 156 155 153 154 159 159 156 165 191 234 259 266 277 286 296 302 303 305 306 309 306 297 295 302